{"data":{"norad_id":48127,"intl_designator":"2021-027AM","name":"STARLINK-2468","alt_names":[],"object_type":"PAYLOAD","status":"ACTIVE","operator":null,"country":"US","launch_date":"2021-04-07","launch_site_code":"AFETR","launch_vehicle":null,"mission":null,"orbit_class":"UNKNOWN","rcs_meters":null,"size_class":null,"mass_kg":null,"dimensions":null,"purposes":["comms"],"wikipedia_slug":null,"has_3d_model":false,"image_url":null,"decayed_at":null,"tle_current":{"epoch":"2026-09-19T22:10:20.860320Z","epoch_age_seconds":71831,"freshness":"FRESH","line1":"1 48127U 21027AM  26262.92385255 -.00000696  00000+0 -10643-4 0  9991","line2":"2 48127  53.1613 341.4674 0001515  82.8573 277.2601 15.31699575302277","mean_motion":15.31699575,"eccentricity":0.0001515,"inclination_deg":53.1613,"raan_deg":341.4674,"arg_perigee_deg":82.8573,"mean_anomaly_deg":277.2601,"bstar":-1.0643e-5,"rev_number":30227,"period_min":94.013214046886,"perigee_km":469.70365707211,"apogee_km":471.77886718554,"semimajor_km":6848.8782621288,"source":"CELESTRAK","updated_at":"2026-09-20T09:00:38.766719Z"}}}